sat.trackr.live / text

‹ back to catalog

STARLINK-4507

NORAD 53403 · 2022-097R

PAYLOAD ACTIVE UNKNOWN

§ Identity

Operator
Country
US
Launch date
2022-08-10
Launch site
AFETR
Launch vehicle
Mass (kg)
RCS (m²)

Purposes: comms

External: N2YO · Heavens-Above · Gunter

§ Orbital elements

Epoch: 2026-05-25T03:37:05.695104Z

Period
95.44 min
Inclination
53.2128°
Eccentricity
0.0001116
Mean motion
15.08833968 rev/d
Perigee alt
539.0 km
Apogee alt
540.5 km
Semi-major
6,917.9 km
B*
-5.7391e-5
RAAN
141.2209°
Arg perigee
76.6981°
Mean anomaly
283.4136°
Rev number
21,005

§ Raw data

STARLINK-45071 53403U 22097R   26145.15076036 -.00001201  00000+0 -57391-4 0  99952 53403  53.2128 141.2209 0001116  76.6981 283.4136 15.08833968210059

JSON: /api/v1/satellites/53403 · /tle

For live sub-satellite position, see the globe view (requires WebGL).

§ Visibility from observer

Set your observer location to see the next 7 days of passes ≥ 10°. The values pass through the URL so the page stays shareable.

No JS? Fill the form by hand. The geolocation button needs JavaScript.